LiveATC.Net - Listen to live air traffic control over the Internet! Contact LiveATC.net for advertising information


ICAO: LFLP  IATA: NCY   Airport: Annecy-Meythet Airport
City: Annecy
Country: France   Continent: Europe
LFLP METAR Weather: LFLP 232100Z AUTO VRB03KT 9000 FEW066/// OVC110/// ///TCU 20/18 Q1013
LFLP Flight Activity (FlightAware)
LFLP Twr/App
Feed Status: DOWN
Last heard on: 2014-07-23 19:08:04 (0 days 2 hours 42 minutes ago)
LFLP Twr/App Audio Archives
FacilityFrequency
Air to Air123.500
Annecy Tower118.200
Chambery Approach121.200
Chambery Info123.700
Chambery Tower118.300
Geneve Info126.350
Lyon Approach125.800


NOTICE

Unauthorized use prohibited. See LiveATC.net Terms of Service


Find LiveATC Audio Streams


Airport/ARTCC Code

Frequency
(e.g., 124.400, 128.75)
Site-wide search

Browse LiveATC Feeds
LiveATC Coverage Map
Top 50 LiveATC Feeds
Bad Weather Areas

LiveATC FAQ
Offer a LiveATC Feed
Contact LiveATC.net
Press Inquiries

LiveATC on iPhone
LiveATC on Android

LiveATC Mobile
(Mobile browser)

ATC Audio Archives
Interesting Recordings

LiveATC Forums


Home Page
About LiveATC.net
Make a Donation
LiveATC Bookstore

Terms of Use
Privacy Policy

ATC/Radar Sites
U.S. ARTCC Freqs
Canadian Air Freqs

AIRMETs/SIGMETs

FAA Airport Status
Nat'l Airspace Status
Arrival Demand Charts


Server Software By:
Icecast.org
Liquidsoap

Please make a donation to help us keep growing!